Location: Pl�tzky
(52.0521°N, 11.8020°E)
Time: 15:01:03
(UTC+00:00)

USA 229 - Pass Details

Date: 25 February 2020
Orbit: 986 x 1226 km, 63.4° (Epoch: 26 March)

Event Time Altitude Azimuth Distance (km) Brightness Sun altitude
Rises 22:32:10 0° 305° (NW) 3,870 7.2 -45.6°
Reaches altitude 10° 22:34:56 10° 313° (NW) 2,948 6.5 -45.7°
Enters shadow 22:37:44 24° 327° (NNW) 2,118 5.6 -45.9°
